Location: Chuathbaluk
(61.5726°N, 159.2454°W)
Time: 15:53:22
(UTC+00:00)

NOAA 15 - Pass Details

Date: 21 January 2021
Orbit: 798 x 812 km, 98.7° (Epoch: 05 March)

Event Time Altitude Azimuth Distance (km) Brightness Sun altitude
Rises 07:24:34 0° 234° (SW) 3,310 8.1 -35.5°
Reaches altitude 10° 07:29:05 10° 270° (W) 2,390 7.7 -36.0°
Maximum altitude 07:30:24 11° 285° (WNW) 2,332 7.7 -36.1°
Drops below altitude 10° 07:31:44 10° 300° (WNW) 2,397 7.8 -36.2°
Sets 07:36:18 0° 336° (NNW) 3,339 8.5 -36.7°
